Flag for U.S.A. Weather past 2 weeks in Lansing, Michigan, U.S.A.

Now
11 °F

Clear.


Feels Like: 11 °F
Forecast: 8 / 29 °F
Wind: No wind

Location: Capital City Airport

Current Time: Jan 28, 2015 at 1:35:18 AM

Latest Report: Jan 28, 2015 at 12:53 AM


Visibility: 10 mi

Pressure: 30.30 "Hg

Humidity: 77%

Dew point: 5 °F

Location of LansingLocation

Historic Weather in Lansing — Graph

°F

Lansing temperature yesterday

Maximum temperature yesterday: 27 °F (at 3:04 PM)
Minimum temperature yesterday: 13 °F (at 10:53 PM)
Average temperature yesterday: 18 °F

Past Weeks' High & Low Weather Summary

 TemperatureHumidityPressure
High44 °F (Jan 17, 3:53 PM)96% (Jan 25, 12:53 AM)30.81 "Hg (Jan 25, 12:53 AM)
Low-11 °F (Jan 14, 5:53 AM)46% (Jan 26, 3:53 PM)29.59 "Hg (Jan 24, 2:53 PM)
Average23 °F76%30.08 "Hg
* Reported Jan 12 11:53 PM — Jan 27 11:53 PM, Lansing, Weather by CustomWeather, © 2014

Note: Actual official high and low records may vary slightly from our data, if they occured in-between our weather recording intervals... More about our weather records

Advertising

Lansing weather history for previous 24 hours

 ConditionsComfort  
Time TempWeatherWind HumidityBarometerVisibility
11:53 PM
Jan 27
13 °FClear.No wind77%30.29 "Hg9 mi
10:53 PM13 °FClear.No wind81%30.27 "Hg10 mi
9:53 PM14 °FClear.No wind77%30.27 "Hg10 mi
8:53 PM16 °FClear.No wind74%30.28 "Hg10 mi
7:53 PM18 °FClear.No wind71%30.28 "Hg10 mi
6:53 PM20 °FClear.No wind65%30.26 "Hg10 mi
5:53 PM21 °FClear.5 mph60%30.24 "Hg10 mi
4:53 PM24 °FSunny.8 mph57%30.23 "Hg10 mi
3:53 PM26 °FScattered clouds.8 mph55%30.22 "Hg10 mi
3:04 PM27 °FScattered clouds.6 mph55%30.16 "Hg10 mi
2:53 PM26 °FLight snow. Partly sunny.7 mph55%30.20 "Hg10 mi
1:53 PM25 °FPartly sunny.8 mph63%30.18 "Hg10 mi
12:53 PM23 °FScattered clouds.12 mph65%30.19 "Hg10 mi
11:53 AM23 °FBroken clouds.10 mph63%30.19 "Hg10 mi
10:53 AM20 °FMostly cloudy.5 mph68%30.19 "Hg10 mi
9:53 AM18 °FSunny.5 mph71%30.17 "Hg10 mi
8:53 AM15 °FSunny.3 mph77%30.16 "Hg9 mi
7:53 AM14 °FPassing clouds.3 mph84%30.14 "Hg9 mi
6:53 AM15 °FMostly cloudy.5 mph83%30.10 "Hg10 mi
5:53 AM15 °FClear.5 mph80%30.08 "Hg9 mi
4:53 AM14 °FPassing clouds.5 mph84%30.06 "Hg9 mi
3:53 AM14 °FPassing clouds.5 mph84%30.05 "Hg9 mi
2:53 AM15 °FOvercast.3 mph80%30.04 "Hg10 mi
1:53 AM15 °FOvercast.3 mph80%30.02 "Hg10 mi
Weather by CustomWeather, © 2014

See weather overviewHow to use our weather pages